GW6614 Weather Reports


Display with metric or nautical units.
time (UTC)temp
F
wind
direction
speed
MPH
gust
MPH
rain 1hr
in
rain 24hr
in
rain mn
in
humidity
%
barometer
mb
20260502214204 67 233 1.0 8.0 0.00 0.18 0.18 47 1014.3
20260502213704 67 349 1.0 8.0 0.00 0.18 0.18 47 1014.4
20260502211704 67 351 0.0 5.0 0.00 0.18 0.18 47 1014.4
20260502211204 67 216 0.0 4.0 0.00 0.18 0.18 47 1014.4
20260502210704 67 336 0.0 4.0 0.00 0.18 0.18 47 1014.5
20260502210204 67 15 0.0 2.0 0.00 0.18 0.18 47 1014.5
20260502205704 67 218 0.0 4.0 0.00 0.18 0.18 47 1014.5
20260502204705 67 133 0.0 4.0 0.00 0.18 0.18 48 1014.5
20260502203204 67 123 0.0 2.0 0.00 0.18 0.18 48 1014.6
20260502202704 67 123 0.0 2.0 0.00 0.18 0.18 49 1014.5
20260502202204 66 55 0.0 2.0 0.00 0.18 0.18 49 1014.5
20260502201704 66 287 0.0 3.0 0.00 0.18 0.18 50 1014.5
20260502201204 66 213 0.0 3.0 0.00 0.18 0.18 51 1014.5
20260502200705 65 37 0.0 3.0 0.00 0.18 0.18 52 1014.5
20260502195704 64 109 0.0 2.0 0.00 0.18 0.18 55 1014.6
20260502194704 64 186 0.0 0.0 0.00 0.18 0.18 62 1014.5
20260502194204 64 186 0.0 0.0 0.00 0.18 0.18 62 1014.6
20260502193704 64 186 0.0 0.0 0.00 0.18 0.18 63 1014.5
20260502193204 65 186 0.0 1.0 0.00 0.18 0.18 64 1014.5
20260502192704 65 186 0.0 1.0 0.00 0.18 0.18 65 1014.5
20260502192231 65 186 0.0 1.0 0.00 0.18 0.18 64 1014.4
20260502191704 65 186 0.0 0.0 0.00 0.18 0.18 63 1014.4
20260502191205 65 186 0.0 0.0 0.00 0.18 0.18 62 1014.4
20260502190704 66 186 0.0 0.0 0.00 0.18 0.18 62 1014.4
20260502190204 66 186 0.0 0.0 0.00 0.18 0.18 61 1014.3
20260502185704 67 186 0.0 0.0 0.00 0.18 0.18 61 1014.3
20260502185204 67 186 0.0 0.0 0.00 0.18 0.18 60 1014.4
20260502184704 68 186 0.0 0.0 0.00 0.18 0.18 60 1014.3
20260502184204 69 186 0.0 0.0 0.00 0.18 0.18 58 1014.3
20260502183204 70 186 0.0 1.0 0.00 0.18 0.18 56 1014.4
20260502182204 71 186 0.0 1.0 0.00 0.18 0.18 52 1014.3
20260502181204 72 56 0.0 0.0 0.00 0.18 0.18 50 1014.3
20260502180704 72 55 0.0 0.0 0.00 0.18 0.18 50 1014.4
20260502180204 72 55 0.0 0.0 0.00 0.18 0.18 49 1014.4
20260502164204 76 165 0.0 3.0 0.00 0.18 0.18 43 1014.6
20260502163704 76 255 0.0 3.0 0.00 0.18 0.18 42 1014.6
20260502163204 76 228 0.0 4.0 0.00 0.18 0.18 41 1014.6
20260502162704 76 270 0.0 4.0 0.00 0.18 0.18 41 1014.7
20260502161704 77 324 0.0 6.0 0.00 0.18 0.18 42 1014.8
20260502161204 78 175 1.0 9.0 0.00 0.18 0.18 41 1014.7
20260502160704 78 189 1.0 9.0 0.00 0.18 0.18 40 1014.8
20260502160204 78 26 1.0 9.0 0.00 0.18 0.18 40 1014.8
20260502152204 79 67 0.0 7.0 0.00 0.18 0.18 41 1015.3
20260502151705 79 188 0.0 7.0 0.00 0.18 0.18 41 1015.2
20260502151204 79 58 1.0 7.0 0.00 0.18 0.18 41 1015.3
20260502150705 78 188 1.0 11.0 0.00 0.18 0.18 40 1015.5
20260502150204 78 45 1.0 11.0 0.00 0.18 0.18 41 1015.6
20260502130705 77 251 0.0 3.0 0.00 0.18 0.18 54 1017.3
20260502130205 77 27 0.0 3.0 0.00 0.18 0.18 54 1017.4
20260502123704 78 327 1.0 5.0 0.01 0.18 0.18 54 1017.6
20260502122704 78 350 1.0 3.0 0.01 0.18 0.18 54 1017.8
20260502121705 77 28 1.0 8.0 0.01 0.18 0.18 54 1017.8
20260502121204 77 189 1.0 4.0 0.01 0.18 0.18 55 1017.9
20260502120204 76 231 1.0 6.0 0.01 0.18 0.18 57 1018.1
20260502115704 76 240 1.0 6.0 0.01 0.18 0.18 55 1018.1
20260502115204 77 190 1.0 6.0 0.01 0.18 0.18 54 1018.2
20260502113705 77 245 1.0 5.0 0.00 0.17 0.17 55 1018.3
20260502113204 77 246 1.0 5.0 0.00 0.17 0.17 54 1018.4
20260502112704 77 202 1.0 5.0 0.00 0.17 0.17 53 1018.4
20260502112204 77 355 1.0 5.0 0.00 0.17 0.17 52 1018.5
20260502111704 77 53 0.0 4.0 0.00 0.17 0.17 54 1018.5
20260502111205 76 293 0.0 4.0 0.00 0.17 0.17 55 1018.6
20260502110731 76 143 0.0 3.0 0.00 0.17 0.17 55 1018.6
20260502110205 76 138 0.0 7.0 0.00 0.17 0.17 56 1018.6
20260502105704 75 197 1.0 7.0 0.00 0.17 0.17 56 1018.6
20260502105204 75 70 1.0 5.0 0.00 0.17 0.17 56 1018.8
20260502104704 75 87 1.0 4.0 0.00 0.17 0.17 57 1018.9
20260502103704 74 207 1.0 4.0 0.00 0.17 0.17 60 1018.8
20260502103204 74 26 0.0 3.0 0.00 0.17 0.17 55 1018.9
20260502102704 73 340 0.0 3.0 0.00 0.17 0.17 55 1018.9
20260502102204 72 126 0.0 3.0 0.00 0.17 0.17 59 1019.0
20260502101704 72 0 0.0 4.0 0.00 0.17 0.17 56 1019.0
20260502101204 71 0 0.0 4.0 0.00 0.17 0.17 58 1019.2
20260502100705 70 99 0.0 2.0 0.00 0.17 0.17 60 1019.4
20260502100204 70 329 0.0 1.0 0.00 0.17 0.17 61 1019.4
20260502091204 66 272 0.0 3.0 0.00 0.17 0.17 74 1019.6
20260502090704 65 273 0.0 3.0 0.00 0.17 0.17 78 1019.5
20260502090204 65 273 0.0 0.0 0.00 0.17 0.17 77 1019.6
20260502071205 54 19 0.0 3.0 0.09 0.12 0.12 88 1020.1
20260502070704 53 19 1.0 4.0 0.09 0.12 0.12 88 1019.9
20260502070204 54 5 1.0 4.0 0.09 0.12 0.12 88 1020.0
20260502065704 54 23 1.0 4.0 0.10 0.11 0.11 88 1020.1
20260502065204 54 36 1.0 4.0 0.10 0.10 0.10 87 1020.0
20260502064704 55 57 1.0 4.0 0.09 0.09 0.09 85 1020.4
20260502064205 55 9 1.0 3.0 0.02 0.02 0.02 84 1020.5
20260502063704 55 244 0.0 3.0 0.02 0.02 0.02 81 1021.3
20260502063205 55 238 0.0 4.0 0.02 0.02 0.02 79 1021.3
20260502062704 55 11 1.0 4.0 0.02 0.02 0.02 77 1020.8
20260502062204 55 16 1.0 4.0 0.02 0.02 0.02 76 1020.5
20260502061204 54 49 0.0 3.0 0.02 0.02 0.02 80 1020.2
20260502060704 53 37 0.0 3.0 0.02 0.02 0.02 80 1020.2
20260502060204 53 69 0.0 3.0 0.02 0.02 0.02 79 1020.1
20260502055704 53 40 0.0 2.0 0.00 0.00 0.00 76 1020.2
20260502055204 53 34 0.0 2.0 0.00 0.00 0.00 75 1020.4
20260502054704 53 34 0.0 2.0 0.00 0.00 0.00 74 1020.5
20260502054204 53 27 0.0 2.0 0.00 0.00 0.00 75 1020.7
20260502053705 53 23 0.0 2.0 0.00 0.00 0.00 73 1020.5
20260502052704 52 160 0.0 0.0 0.00 0.00 0.00 74 1020.8
20260502052205 52 160 0.0 0.0 0.00 0.00 0.00 74 1020.8
20260502051704 52 160 0.0 0.0 0.00 0.00 0.00 74 1020.8
20260502051204 52 160 0.0 0.0 0.00 0.00 0.00 75 1020.9
20260502050704 51 160 0.0 0.0 0.00 0.00 0.00 76 1020.9
20260502045704 51 160 0.0 0.0 0.00 0.00 0.00 76 1020.9
20260502044705 50 160 0.0 1.0 0.00 0.00 0.00 78 1021.2
20260502044204 50 160 0.0 1.0 0.00 0.00 0.00 78 1021.3
20260502043204 49 78 0.0 1.0 0.00 0.00 0.00 78 1020.8
20260502042704 49 9 0.0 0.0 0.00 0.00 0.00 78 1020.6
20260502042204 49 9 0.0 0.0 0.00 0.00 0.00 79 1020.6
20260502041705 49 0 0.0 0.0 0.00 0.00 0.00 79 1020.5
20260502041204 49 0 0.0 0.0 0.00 0.00 0.00 79 1020.5
20260502040704 49 0 0.0 0.0 0.00 0.00 0.00 79 1020.4
20260502040204 48 355 0.0 0.0 0.00 0.00 0.00 79 1020.4
20260502035704 48 355 0.0 0.0 0.00 0.00 0.00 79 1020.4
20260502035204 48 355 0.0 0.0 0.00 0.00 0.00 80 1020.4
20260502034704 48 355 0.0 0.0 0.00 0.00 0.00 80 1020.3
20260502033704 48 355 0.0 0.0 0.00 0.00 0.00 80 1020.4
20260502032704 48 355 0.0 1.0 0.00 0.00 0.00 80 1020.5
20260502032204 48 355 0.0 1.0 0.00 0.00 0.00 80 1020.5
20260502031704 48 355 0.0 0.0 0.00 0.00 0.00 80 1020.5
20260502031204 48 344 0.0 0.0 0.00 0.00 0.00 80 1020.6
20260502030704 48 344 0.0 1.0 0.00 0.00 0.00 80 1020.7
20260502030204 48 344 0.0 1.0 0.00 0.00 0.00 80 1020.7
20260502025705 48 344 0.0 1.0 0.00 0.00 0.00 80 1020.7
20260502025205 48 323 0.0 0.0 0.00 0.00 0.00 79 1020.8
20260502024704 48 322 0.0 0.0 0.00 0.00 0.00 79 1021.0
20260502024204 48 322 0.0 1.0 0.00 0.00 0.00 79 1021.0
20260502023704 48 322 0.0 3.0 0.00 0.00 0.00 80 1021.2
20260502023204 48 322 0.0 6.0 0.00 0.00 0.00 80 1021.4
20260502022704 48 319 1.0 6.0 0.00 0.00 0.00 81 1021.3
20260502022204 47 300 1.0 6.0 0.00 0.00 0.00 81 1021.4
20260502021705 47 262 0.0 0.0 0.00 0.00 0.00 81 1021.5
20260502021233 47 46 0.0 0.0 0.00 0.00 0.00 80 1020.8
20260502020704 47 46 0.0 0.0 0.00 0.00 0.00 80 1020.8
20260502020204 47 46 0.0 0.0 0.00 0.00 0.00 80 1020.9
20260502015704 47 46 0.0 0.0 0.00 0.00 0.00 80 1020.8
20260502014704 47 46 0.0 0.0 0.00 0.00 0.00 80 1020.9
20260502014204 47 46 0.0 0.0 0.00 0.00 0.00 80 1020.9
20260502013733 47 46 0.0 0.0 0.00 0.00 0.00 79 1020.9
20260502013204 47 46 0.0 0.0 0.00 0.00 0.00 79 1020.9
20260502012705 47 46 0.0 0.0 0.00 0.00 0.00 79 1020.9
20260502012204 47 46 0.0 0.0 0.00 0.00 0.00 79 1021.0
20260502011705 47 46 0.0 0.0 0.00 0.00 0.00 78 1021.1
20260502011204 48 37 0.0 0.0 0.00 0.00 0.00 78 1021.1
20260502010704 48 37 0.0 0.0 0.00 0.00 0.00 78 1021.2
20260502010204 48 37 0.0 0.0 0.00 0.00 0.00 78 1021.1
20260502005204 48 37 0.0 2.0 0.00 0.00 0.00 78 1021.2
20260502004705 48 37 0.0 2.0 0.00 0.00 0.00 78 1021.1
20260502004205 48 37 0.0 1.0 0.00 0.00 0.00 79 1021.0
20260502003704 48 296 0.0 0.0 0.00 0.00 0.00 79 1021.2
20260502003204 48 260 0.0 0.0 0.00 0.00 0.00 79 1021.1
20260502002704 48 260 0.0 0.0 0.00 0.00 0.00 78 1021.1
20260502002205 48 260 0.0 1.0 0.00 0.00 0.00 78 1021.3
20260502000704 49 260 0.0 0.0 0.00 0.00 0.00 77 1021.4
20260502000204 49 260 0.0 0.0 0.00 0.00 0.00 77 1021.5
20260501235705 49 260 0.0 0.0 0.00 0.00 0.00 77 1021.5
20260501235205 49 259 0.0 3.0 0.00 0.00 0.00 77 1021.6
20260501234704 49 259 0.0 6.0 0.00 0.00 0.00 78 1021.8
20260501234204 49 259 1.0 6.0 0.00 0.00 0.00 78 1021.8
20260501233704 48 259 1.0 6.0 0.00 0.00 0.00 79 1021.9
20260501233204 48 225 0.0 3.0 0.00 0.00 0.00 78 1021.8
20260501232704 48 105 0.0 0.0 0.00 0.00 0.00 78 1021.6
20260501232204 48 104 0.0 0.0 0.00 0.00 0.00 77 1021.5
20260501231704 48 104 0.0 0.0 0.00 0.00 0.00 77 1021.5
20260501231205 48 104 0.0 0.0 0.00 0.00 0.00 77 1021.6
20260501230704 48 104 0.0 0.0 0.00 0.00 0.00 76 1021.6
20260501230204 48 104 0.0 0.0 0.00 0.00 0.00 76 1021.5
20260501225704 49 104 0.0 0.0 0.00 0.00 0.00 76 1021.7
20260501225204 49 104 0.0 0.0 0.00 0.00 0.00 75 1021.7
20260501224704 49 104 0.0 0.0 0.00 0.00 0.00 75 1021.7
20260501224204 49 104 0.0 0.0 0.00 0.00 0.00 74 1021.9
20260501223704 49 104 0.0 0.0 0.00 0.00 0.00 74 1021.9
20260501223205 49 104 0.0 0.0 0.00 0.00 0.00 74 1021.8
20260501222704 49 104 0.0 0.0 0.00 0.00 0.00 74 1021.9
20260501222204 50 104 0.0 0.0 0.00 0.00 0.00 73 1021.9
20260501221704 50 104 0.0 0.0 0.00 0.00 0.00 73 1021.9
20260501221204 50 104 0.0 0.0 0.00 0.00 0.00 72 1022.0
20260501220705 50 104 0.0 0.0 0.00 0.00 0.00 72 1022.0
20260501220211 51 104 0.0 0.0 0.00 0.00 0.00 71 1022.0
20260501215704 51 104 0.0 0.0 0.00 0.00 0.00 71 1022.0
20260501215205 51 104 0.0 0.0 0.00 0.00 0.00 70 1022.1
20260501214704 51 104 0.0 0.0 0.00 0.00 0.00 70 1022.0